[[{"header":{"parameterUnit":"m.s-1","parameterCategory":1,"la1":30.2992,"la2":30.254,"lo1":-89.0895,"lo2":-89.0443,"dy":0.0025,"dx":0.0025,"nx":19,"ny":19,"refTime":"2026-04-17T03:00:00:Z","depth":0,"parameterNumber":2,"parameterNumberName":"U-component_of_WINDS"},"data":[0,0,0,-0.6126,-0.6124,-0.6006,-0.6005,-0.5874,-0.5873,0,0,0,0,0,0,0,0,0,0,0,-0.6174,-0.6173,-0.6126,-0.6124,-0.6006,-0.6005,-0.5874,-0.5873,0,0,0,0,0,0,0,0,0,0,0,-0.6174,-0.6173,-0.6173,-0.6123,-0.6006,-0.6005,-0.5874,-0.5956,0,0,0,0,0,0,0,0,0,0,-0.6067,-0.6124,-0.6173,-0.6173,-0.6123,-0.6006,-0.6005,-0.596,-0.5951,-0.5936,0,-0.5927,0,-0.5898,-0.5865,-0.5865,0,0,0,-0.6114,-0.6131,-0.6088,-0.6173,-0.6122,-0.6006,-0.6056,-0.5955,-0.5945,-0.5925,-0.5925,-0.5919,-0.5896,-0.5865,-0.5864,-0.5813,-0.5813,0,0,-0.612,-0.6159,-0.6095,-0.6082,-0.6103,-0.606,-0.6053,-0.5948,-0.5951,-0.5924,-0.5916,-0.5894,-0.5864,-0.5863,-0.5813,-0.5813,0,0,0,-0.6146,-0.6164,-0.6123,-0.6088,-0.6066,-0.6057,-0.6048,-0.5955,-0.5939,-0.5914,-0.5892,-0.5863,-0.5862,-0.5813,-0.5813,-0.5862,0,0,0,-0.6149,-0.6179,-0.6126,-0.6149,-0.6068,-0.6009,-0.6058,-0.5946,-0.5933,-0.5893,-0.5863,-0.5861,-0.5812,-0.5813,-0.586,-0.5879,0,0,0,-0.6177,-0.6182,-0.6169,-0.6151,-0.6102,-0.601,-0.5987,-0.5942,-0.592,-0.5865,-0.5861,-0.5812,-0.5813,-0.5858,-0.5876,-0.5878,0,0,0,-0.6218,-0.6213,-0.6171,-0.6157,-0.6103,-0.6041,-0.5987,-0.5939,-0.5898,-0.5863,-0.5812,-0.5813,-0.5858,-0.5874,-0.5876,-0.5887,-0.5895,0,0,-0.6234,-0.6217,-0.6206,-0.6164,-0.612,-0.6056,-0.6019,-0.5944,-0.5903,-0.5845,-0.5843,-0.5861,-0.5876,-0.5877,-0.5924,-0.5931,0,0,0,-0.6224,-0.6217,-0.6197,-0.616,-0.6104,-0.6057,-0.5984,-0.5956,-0.5905,-0.5881,-0.586,-0.5868,-0.5867,-0.5871,-0.5876,-0.5874,-0.5816,-0.5816,-0.5816,-0.6302,-0.6251,-0.623,-0.6165,-0.613,-0.6055,-0.6022,-0.5972,-0.5929,-0.5925,-0.5908,-0.5943,-0.5948,-0.5952,-0.595,-0.5909,-0.5909,-0.5909,-0.5909,-0.6322,-0.6304,-0.6249,-0.6209,-0.6155,-0.612,-0.6048,-0.6019,-0.5979,-0.5951,-0.5948,-0.5923,-0.5961,-0.5956,-0.5912,-0.5912,-0.5911,-0.5911,-0.5911,-0.6368,-0.6351,-0.6318,-0.6261,-0.6222,-0.6155,-0.612,-0.6071,-0.6025,-0.6022,-0.5999,-0.5998,-0.5991,-0.6014,-0.6014,-0.6014,-0.6014,-0.6015,-0.6015,-0.643,-0.6391,-0.6368,-0.6308,-0.6279,-0.6234,-0.616,-0.6129,-0.6082,-0.605,-0.6049,-0.6008,-0.5974,-0.5967,-0.6016,-0.6016,-0.6016,-0.6016,-0.6015,-0.647,-0.6454,-0.6418,-0.6389,-0.6315,-0.6281,-0.6219,-0.6161,-0.6128,-0.6113,-0.6072,-0.6055,-0.6033,-0.6028,-0.6023,-0.6083,-0.6083,-0.6083,-0.6083,-0.651,-0.6495,-0.6448,-0.6404,-0.6356,-0.6297,-0.6258,-0.6201,-0.6138,-0.6115,-0.6099,-0.6086,-0.6084,-0.6064,-0.6058,-0.6052,-0.6118,-0.6118,-0.6118,-0.6533,-0.6511,-0.6488,-0.6427,-0.6366,-0.6315,-0.6277,-0.623,-0.6155,-0.6119,-0.6096,-0.6094,-0.6074,-0.6069,-0.6034,-0.6026,-0.6013,0,0]},{"header":{"parameterUnit":"m.s-1","parameterCategory":1,"la1":30.2992,"la2":30.254,"lo1":-89.0895,"lo2":-89.0443,"dy":0.0025,"dx":0.0025,"nx":19,"ny":19,"refTime":"2026-04-17T03:00:00:Z","depth":0,"parameterNumber":3,"parameterNumberName":"V-component_of_WINDS"},"data":[0,0,0,4.413,4.413,4.4132,4.4132,4.415,4.415,0,0,0,0,0,0,0,0,0,0,0,4.4138,4.4138,4.413,4.413,4.4132,4.4132,4.415,4.415,0,0,0,0,0,0,0,0,0,0,0,4.4138,4.4138,4.4139,4.413,4.4132,4.4132,4.415,4.4143,0,0,0,0,0,0,0,0,0,0,4.4138,4.4153,4.4138,4.4139,4.413,4.4132,4.4132,4.4142,4.4143,4.4155,0,4.4167,0,4.4159,4.4152,4.4152,0,0,0,4.4124,4.4153,4.4146,4.4139,4.4131,4.4132,4.413,4.4143,4.4144,4.4156,4.4167,4.4167,4.4159,4.4152,4.4152,4.4239,4.424,0,0,4.4124,4.4143,4.4145,4.4147,4.4147,4.413,4.413,4.4143,4.4156,4.4167,4.4167,4.4159,4.4152,4.4153,4.4238,4.4239,0,0,0,4.4128,4.4143,4.4135,4.4147,4.4146,4.413,4.413,4.4156,4.4152,4.4168,4.416,4.4153,4.4153,4.4238,4.4239,4.4291,0,0,0,4.4127,4.4145,4.4136,4.4147,4.4146,4.4151,4.4143,4.4151,4.4152,4.416,4.4153,4.4153,4.4237,4.4238,4.4288,4.4312,0,0,0,4.4135,4.4146,4.4149,4.4148,4.4149,4.415,4.4146,4.415,4.4147,4.4152,4.4153,4.4236,4.4238,4.4285,4.4308,4.434,0,0,0,4.4148,4.4195,4.415,4.42,4.415,4.4182,4.4146,4.417,4.418,4.4153,4.4237,4.4239,4.4284,4.4305,4.4338,4.4371,4.4387,0,0,4.4218,4.4204,4.4232,4.4192,4.4237,4.4181,4.4234,4.4226,4.421,4.423,4.4232,4.4289,4.4307,4.434,4.447,4.4483,0,0,0,4.4261,4.4281,4.4289,4.43,4.4295,4.4293,4.4275,4.4273,4.4289,4.4224,4.4309,4.432,4.4338,4.4353,4.4364,4.4378,4.4247,4.4246,4.4246,4.4386,4.4363,4.4407,4.4385,4.4396,4.4377,4.4384,4.4378,4.4351,4.4371,4.4377,4.4459,4.4477,4.4485,4.4501,4.4393,4.4394,4.4394,4.4394,4.4486,4.4511,4.4475,4.4505,4.448,4.4506,4.449,4.4471,4.4491,4.4452,4.4467,4.4427,4.45,4.4512,4.4398,4.4397,4.4396,4.4396,4.4396,4.4565,4.4572,4.4569,4.4583,4.4596,4.4572,4.4594,4.457,4.4549,4.4564,4.4568,4.4567,4.4563,4.4568,4.4568,4.4568,4.4568,4.4569,4.4569,4.4647,4.4641,4.4662,4.4662,4.4666,4.467,4.4653,4.4656,4.4655,4.4637,4.4636,4.4608,4.4512,4.4488,4.4573,4.4572,4.4572,4.4571,4.4571,4.4756,4.4728,4.476,4.4765,4.4763,4.4779,4.475,4.476,4.476,4.4771,4.474,4.4673,4.4657,4.4648,4.4628,4.4745,4.4745,4.4745,4.4745,4.4822,4.4813,4.484,4.4849,4.4856,4.4833,4.4871,4.4859,4.4842,4.484,4.482,4.4792,4.4784,4.4773,4.4762,4.4743,4.4886,4.4886,4.4886,4.4888,4.4878,4.4914,4.4897,4.4894,4.4893,4.4928,4.494,4.4915,4.4891,4.4839,4.4833,4.4787,4.4773,4.4747,4.473,4.4695,0,0]}]]